SV2BZQ-1 Weather Reports


time (UTC)temp
C
wind
direction
speed
KPH
gust
KPH
rain 1hr
cm
rain 24hr
cm
rain mn
cm
humidity
%
barometer
mb
20260906064548 26 342 6.4 17.7 0.00 0.00 0.00 56 1015.6
20260906064426 26 357 8.0 17.7 0.00 0.00 0.00 56 1015.6
20260906064303 26 347 6.4 12.9 0.00 0.00 0.00 58 1015.5
20260906064058 26 346 6.4 12.9 0.00 0.00 0.00 58 1015.5
20260906063916 26 117 6.4 12.9 0.00 0.00 0.00 59 1015.5
20260906063204 26 120 6.4 12.9 0.00 0.00 0.00 60 1015.5
20260906063037 26 92 4.8 12.9 0.00 0.00 0.00 60 1015.5
20260906062917 25 99 4.8 12.9 0.00 0.00 0.00 60 1015.5
20260906062727 25 350 4.8 12.9 0.00 0.00 0.00 61 1015.4
20260906062111 25 106 4.8 11.3 0.00 0.00 0.00 61 1015.4
20260906061809 25 113 4.8 11.3 0.00 0.00 0.00 62 1015.4
20260906061645 25 18 4.8 11.3 0.00 0.00 0.00 63 1015.4
20260906061506 25 319 4.8 11.3 0.00 0.00 0.00 63 1015.4
20260906061304 25 27 6.4 11.3 0.00 0.00 0.00 63 1015.3
20260906061046 25 333 6.4 12.9 0.00 0.00 0.00 64 1015.3
20260906060431 25 357 6.4 16.1 0.00 0.00 0.00 65 1015.3
20260906060312 24 28 8.0 16.1 0.00 0.00 0.00 65 1015.3
20260906060154 24 296 8.0 16.1 0.00 0.00 0.00 65 1015.3
20260906055025 24 0 4.8 17.7 0.00 0.00 0.00 68 1015.2
20260906054831 23 333 3.2 17.7 0.00 0.00 0.00 69 1015.2
20260906054723 23 357 1.6 9.7 0.00 0.00 0.00 69 1015.2
20260906054544 23 1 3.2 9.7 0.00 0.00 0.00 69 1015.2
20260906054328 23 302 3.2 9.7 0.00 0.00 0.00 70 1015.0
20260906053615 23 337 3.2 9.7 0.00 0.00 0.00 70 1015.0
20260906053435 23 322 1.6 9.7 0.00 0.00 0.00 71 1015.0
20260906053303 23 356 1.6 9.7 0.00 0.00 0.00 71 1015.0
20260906052154 22 329 0.0 6.4 0.00 0.00 0.00 72 1014.8
20260906052027 22 330 0.0 3.2 0.00 0.00 0.00 72 1014.8
20260906051912 22 309 0.0 3.2 0.00 0.00 0.00 72 1014.8
20260906050634 22 299 0.0 0.0 0.00 0.00 0.00 71 1014.6
20260906050528 22 299 0.0 0.0 0.00 0.00 0.00 71 1014.6
20260906045941 22 294 0.0 4.8 0.00 0.00 0.00 71 1014.5
20260906045415 22 302 3.2 9.7 0.00 0.00 0.00 71 1014.5
20260906045319 22 305 3.2 9.7 0.00 0.00 0.00 71 1014.5
20260906045216 22 301 3.2 11.3 0.00 0.00 0.00 70 1014.5
20260906045044 22 319 4.8 11.3 0.00 0.00 0.00 70 1014.3
20260906044619 22 301 4.8 11.3 0.00 0.00 0.00 70 1014.3
20260906044129 22 309 6.4 11.3 0.00 0.00 0.00 70 1014.3
20260906043859 22 328 8.0 16.1 0.00 0.00 0.00 70 1014.3
20260906043725 22 339 8.0 16.1 0.00 0.00 0.00 70 1014.3
20260906042533 22 337 8.0 14.5 0.00 0.00 0.00 71 1014.3
20260906042403 22 326 6.4 14.5 0.00 0.00 0.00 71 1014.3
20260906042013 22 315 6.4 14.5 0.00 0.00 0.00 71 1014.3
20260906041555 22 337 4.8 14.5 0.00 0.00 0.00 71 1014.3
20260906041149 22 323 4.8 12.9 0.00 0.00 0.00 71 1014.3
20260906041028 22 336 3.2 12.9 0.00 0.00 0.00 71 1014.3
20260906040859 22 328 3.2 9.7 0.00 0.00 0.00 70 1014.3
20260906035753 22 304 3.2 8.0 0.00 0.00 0.00 68 1014.3
20260906035622 22 294 3.2 9.7 0.00 0.00 0.00 68 1014.2
20260906035502 22 322 3.2 9.7 0.00 0.00 0.00 68 1014.2
20260906035327 22 302 3.2 9.7 0.00 0.00 0.00 68 1014.2
20260906034741 22 326 3.2 9.7 0.00 0.00 0.00 66 1014.2
20260906034419 22 308 1.6 9.7 0.00 0.00 0.00 66 1014.2
20260906034129 21 299 3.2 9.7 0.00 0.00 0.00 66 1014.1
20260906033955 21 305 3.2 9.7 0.00 0.00 0.00 66 1014.1
20260906033602 21 301 3.2 9.7 0.00 0.00 0.00 67 1014.1
20260906033041 21 308 4.8 12.9 0.00 0.00 0.00 68 1014.1
20260906032907 21 308 4.8 12.9 0.00 0.00 0.00 69 1014.1
20260906032723 20 302 4.8 12.9 0.00 0.00 0.00 69 1014.0
20260906032529 20 320 4.8 12.9 0.00 0.00 0.00 70 1014.0
20260906031554 20 323 3.2 9.7 0.00 0.00 0.00 73 1014.0
20260906031433 20 346 1.6 9.7 0.00 0.00 0.00 74 1014.0
20260906031252 20 342 1.6 8.0 0.00 0.00 0.00 75 1013.8
20260906030558 20 323 0.0 0.0 0.00 0.00 0.00 75 1013.8
20260906025951 20 323 0.0 3.2 0.00 0.00 0.00 77 1013.8
20260906025833 20 323 0.0 3.2 0.00 0.00 0.00 77 1013.8
20260906025009 20 326 0.0 3.2 0.00 0.00 0.00 81 1013.8
20260906024751 20 318 0.0 3.2 0.00 0.00 0.00 81 1013.8
20260906024629 20 316 0.0 3.2 0.00 0.00 0.00 81 1013.8
20260906024450 20 329 0.0 3.2 0.00 0.00 0.00 82 1013.8
20260906023426 20 354 1.6 8.0 0.00 0.00 0.00 85 1013.8
20260906023240 20 343 1.6 8.0 0.00 0.00 0.00 85 1013.8
20260906023112 20 13 1.6 8.0 0.00 0.00 0.00 86 1013.8
20260906022359 20 0 3.2 9.7 0.00 0.00 0.00 86 1013.8
20260906021922 20 8 3.2 9.7 0.00 0.00 0.00 87 1013.8
20260906021734 20 7 3.2 9.7 0.00 0.00 0.00 88 1013.8
20260906021111 20 6 3.2 9.7 0.00 0.00 0.00 88 1013.8
20260906020557 20 14 3.2 8.0 0.00 0.00 0.00 89 1013.8
20260906020421 20 7 1.6 9.7 0.00 0.00 0.00 90 1013.8
20260906020258 21 3 1.6 9.7 0.00 0.00 0.00 91 1013.8
20260906015337 21 14 1.6 9.7 0.00 0.00 0.00 91 1013.6
20260906015123 21 17 1.6 9.7 0.00 0.00 0.00 93 1013.6
20260906015005 21 0 0.0 9.7 0.00 0.00 0.00 93 1013.6
20260906014641 21 337 0.0 1.6 0.00 0.00 0.00 93 1013.6
20260906013825 21 336 0.0 1.6 0.00 0.00 0.00 93 1013.6
20260906013554 21 333 0.0 0.0 0.00 0.00 0.00 93 1013.6
20260906013248 21 333 0.0 0.0 0.00 0.00 0.00 93 1013.6
20260906012411 21 333 0.0 0.0 0.00 0.00 0.00 93 1013.6
20260906012305 21 333 0.0 0.0 0.00 0.00 0.00 93 1013.6
20260906012047 21 333 0.0 0.0 0.00 0.00 0.00 93 1013.6
20260906011037 22 333 0.0 0.0 0.00 0.00 0.00 93 1013.6
20260906010818 22 333 0.0 0.0 0.00 0.00 0.00 93 1013.6
20260906010702 22 333 0.0 0.0 0.00 0.00 0.00 93 1013.6
20260906005339 23 320 0.0 0.0 0.00 0.00 0.00 93 1013.7
20260906005206 23 320 0.0 0.0 0.00 0.00 0.00 93 1013.7
20260906004740 24 320 0.0 0.0 0.00 0.00 0.00 92 1013.7
20260906004206 24 320 0.0 3.2 0.00 0.00 0.00 92 1013.7
20260906004100 24 320 0.0 3.2 0.00 0.00 0.00 92 1013.7
20260906003952 24 320 0.0 3.2 0.00 0.00 0.00 92 1013.7
20260906003140 24 304 0.0 3.2 0.00 0.00 0.00 91 1013.7
20260906002759 24 299 0.0 3.2 0.00 0.00 0.00 91 1013.7
20260906002644 24 299 0.0 3.2 0.00 0.00 0.00 91 1013.7
20260906002529 24 285 0.0 0.0 0.00 0.00 0.00 91 1013.7
20260906001439 24 285 0.0 0.0 0.00 0.00 0.00 90 1013.8
20260906001334 24 285 0.0 0.0 0.00 0.00 0.00 90 1013.8
20260906001213 24 285 0.0 0.0 0.00 0.00 0.00 90 1013.8
20260905235920 24 284 0.0 0.0 0.00 0.00 0.00 88 1013.8
20260905234445 24 285 0.0 3.2 0.00 0.00 0.00 86 1013.9
20260905234332 24 285 0.0 3.2 0.00 0.00 0.00 86 1013.9
20260905233244 24 281 0.0 0.0 0.00 0.00 0.00 84 1013.9
20260905233007 24 285 0.0 0.0 0.00 0.00 0.00 83 1013.9
20260905231731 24 285 0.0 0.0 0.00 0.00 0.00 81 1013.7
20260905231623 25 285 0.0 0.0 0.00 0.00 0.00 81 1013.7
20260905231501 25 285 0.0 0.0 0.00 0.00 0.00 80 1013.7
20260905230751 25 285 0.0 0.0 0.00 0.00 0.00 79 1013.8
20260905230241 25 285 0.0 0.0 0.00 0.00 0.00 78 1013.8
20260905230124 25 285 0.0 0.0 0.00 0.00 0.00 78 1013.8
20260905225008 25 285 0.0 0.0 0.00 0.00 0.00 75 1013.9
20260905224729 25 270 0.0 0.0 0.00 0.00 0.00 74 1013.9
20260905224141 25 241 0.0 0.0 0.00 0.00 0.00 73 1013.9
20260905223555 25 241 0.0 0.0 0.00 0.00 0.00 72 1013.9
20260905223445 25 241 0.0 0.0 0.00 0.00 0.00 71 1013.9
20260905223328 25 241 0.0 0.0 0.00 0.00 0.00 71 1013.9
20260905222232 25 241 0.0 0.0 0.00 0.00 0.00 69 1014.0
20260905222127 25 241 0.0 0.0 0.00 0.00 0.00 69 1014.0
20260905222014 25 241 0.0 0.0 0.00 0.00 0.00 68 1014.0
20260905221229 25 237 0.0 0.0 0.00 0.00 0.00 67 1014.0
20260905220838 25 237 0.0 0.0 0.00 0.00 0.00 66 1014.0
20260905220606 25 237 0.0 0.0 0.00 0.00 0.00 66 1014.0
20260905220448 25 237 0.0 0.0 0.00 0.00 0.00 65 1014.0
20260905215818 25 237 0.0 0.0 0.00 0.00 0.00 64 1014.0
20260905215405 25 237 0.0 0.0 0.00 0.00 0.00 64 1014.0
20260905215137 25 237 0.0 0.0 0.00 0.00 0.00 63 1014.0
20260905214039 25 237 0.0 0.0 0.00 0.00 0.00 63 1014.0
20260905213930 25 237 0.0 0.0 0.00 0.00 0.00 63 1014.0
20260905213756 25 237 0.0 0.0 0.00 0.00 0.00 62 1013.8
20260905213648 25 237 0.0 0.0 0.00 0.00 0.00 61 1013.8
20260905212558 25 237 0.0 0.0 0.00 0.00 0.00 58 1013.8
20260905212445 25 237 0.0 0.0 0.00 0.00 0.00 57 1013.8
20260905211918 25 237 0.0 0.0 0.00 0.00 0.00 54 1013.8
20260905211241 25 237 0.0 0.0 0.00 0.00 0.00 52 1013.8
20260905211003 25 237 0.0 0.0 0.00 0.00 0.00 49 1013.8
20260905210241 25 237 0.0 0.0 0.00 0.00 0.00 47 1013.9
20260905205759 25 237 0.0 0.0 0.00 0.00 0.00 47 1013.9
20260905205526 25 237 0.0 0.0 0.00 0.00 0.00 46 1013.9
20260905205402 25 237 0.0 0.0 0.00 0.00 0.00 46 1013.9
20260905204948 25 237 0.0 0.0 0.00 0.00 0.00 45 1013.9
20260905204403 25 237 0.0 0.0 0.00 0.00 0.00 46 1013.9
20260905204251 25 241 0.0 0.0 0.00 0.00 0.00 46 1013.9
20260905203804 25 241 0.0 0.0 0.00 0.00 0.00 45 1013.9
20260905203548 25 241 0.0 1.6 0.00 0.00 0.00 45 1013.9
20260905203331 25 241 0.0 1.6 0.00 0.00 0.00 44 1013.9
20260905202951 25 241 0.0 1.6 0.00 0.00 0.00 44 1013.9
20260905202841 25 241 0.0 1.6 0.00 0.00 0.00 43 1013.9
20260905202622 25 241 0.0 3.2 0.00 0.00 0.00 43 1013.9
20260905202408 26 239 0.0 3.2 0.00 0.00 0.00 43 1013.9
20260905201619 26 254 1.6 3.2 0.00 0.00 0.00 43 1013.9
20260905201506 26 254 1.6 3.2 0.00 0.00 0.00 43 1013.9
20260905201343 26 248 1.6 3.2 0.00 0.00 0.00 43 1013.9
20260905200630 26 244 0.0 3.2 0.00 0.00 0.00 43 1013.9
20260905200207 26 239 0.0 3.2 0.00 0.00 0.00 43 1013.9
20260905200045 26 237 0.0 3.2 0.00 0.00 0.00 43 1013.9
20260905195935 26 229 0.0 3.2 0.00 0.00 0.00 43 1013.9
20260905194815 26 244 0.0 4.8 0.00 0.00 0.00 44 1013.7
20260905194710 26 244 0.0 4.8 0.00 0.00 0.00 44 1013.7
20260905194545 26 234 0.0 4.8 0.00 0.00 0.00 44 1013.7
20260905193949 26 220 0.0 4.8 0.00 0.00 0.00 43 1013.7
20260905193617 26 220 0.0 4.8 0.00 0.00 0.00 43 1013.7
20260905193351 26 220 0.0 4.8 0.00 0.00 0.00 43 1013.7
20260905193243 26 220 0.0 4.8 0.00 0.00 0.00 43 1013.7
20260905192036 26 196 0.0 1.6 0.00 0.00 0.00 43 1013.4
20260905191920 26 222 0.0 3.2 0.00 0.00 0.00 43 1013.4
20260905191804 26 224 0.0 3.2 0.00 0.00 0.00 43 1013.4
20260905191022 26 169 0.0 3.2 0.00 0.00 0.00 43 1013.4
20260905190618 26 227 0.0 3.2 0.00 0.00 0.00 43 1013.4
20260905190500 27 216 0.0 3.2 0.00 0.00 0.00 43 1013.4
20260905190352 27 216 0.0 3.2 0.00 0.00 0.00 42 1013.4
20260905185225 27 227 0.0 4.8 0.00 0.00 0.00 42 1013.4
20260905185004 27 230 0.0 4.8 0.00 0.00 0.00 42 1013.3
20260905184856 27 200 0.0 4.8 0.00 0.00 0.00 42 1013.3
20260905184615 27 226 1.6 4.8 0.00 0.00 0.00 42 1013.3
20260905183808 27 232 0.0 4.8 0.00 0.00 0.00 42 1013.3
20260905183648 27 237 0.0 3.2 0.00 0.00 0.00 42 1013.3
20260905183300 27 251 0.0 3.2 0.00 0.00 0.00 42 1013.3
20260905182828 27 233 0.0 4.8 0.00 0.00 0.00 42 1013.3
20260905182406 27 220 0.0 4.8 0.00 0.00 0.00 42 1013.3
20260905182305 27 240 0.0 4.8 0.00 0.00 0.00 42 1013.3
20260905182145 27 240 0.0 4.8 0.00 0.00 0.00 42 1013.3
20260905180938 27 233 0.0 3.2 0.00 0.00 0.00 42 1013.1
20260905180831 27 251 0.0 3.2 0.00 0.00 0.00 42 1013.2
20260905180715 27 220 0.0 3.2 0.00 0.00 0.00 42 1013.2
20260905180320 28 200 0.0 3.2 0.00 0.00 0.00 42 1013.1
20260905180111 28 223 0.0 3.2 0.00 0.00 0.00 42 1013.1
20260905175644 28 230 0.0 3.2 0.00 0.00 0.00 41 1013.1
20260905175516 28 230 0.0 3.2 0.00 0.00 0.00 41 1013.1
20260905175414 28 230 0.0 3.2 0.00 0.00 0.00 41 1013.1
20260905174335 28 205 0.0 3.2 0.00 0.00 0.00 41 1013.1
20260905174140 28 193 0.0 3.2 0.00 0.00 0.00 41 1013.1
20260905174007 28 208 0.0 3.2 0.00 0.00 0.00 41 1013.1
20260905173854 28 186 0.0 3.2 0.00 0.00 0.00 40 1013.1
20260905173406 29 209 0.0 8.0 0.00 0.00 0.00 40 1013.0
20260905172758 29 202 0.0 8.0 0.00 0.00 0.00 40 1013.0
20260905172657 29 212 0.0 8.0 0.00 0.00 0.00 40 1013.0
20260905172529 29 189 0.0 1.6 0.00 0.00 0.00 40 1013.0
20260905171746 30 193 0.0 11.3 0.00 0.00 0.00 40 1013.0
20260905171426 30 193 0.0 11.3 0.00 0.00 0.00 40 1013.0
20260905171326 30 212 0.0 11.3 0.00 0.00 0.00 40 1013.0
20260905171105 30 182 1.6 11.3 0.00 0.00 0.00 40 1013.0
20260905165959 30 182 0.0 4.8 0.00 0.00 0.00 41 1013.1
20260905165839 30 154 0.0 4.8 0.00 0.00 0.00 40 1013.1
20260905165718 30 174 0.0 4.8 0.00 0.00 0.00 40 1013.1
20260905165249 31 176 0.0 4.8 0.00 0.00 0.00 40 1013.1
20260905164611 31 224 0.0 4.8 0.00 0.00 0.00 40 1013.1
20260905164459 31 233 0.0 4.8 0.00 0.00 0.00 40 1013.1
20260905164333 31 234 1.6 9.7 0.00 0.00 0.00 40 1013.1
20260905164004 31 239 1.6 9.7 0.00 0.00 0.00 39 1013.1
20260905163217 31 168 1.6 9.7 0.00 0.00 0.00 37 1013.1
20260905163054 31 223 0.0 8.0 0.00 0.00 0.00 37 1013.0
20260905162944 31 165 0.0 8.0 0.00 0.00 0.00 38 1013.0
20260905161818 31 148 1.6 9.7 0.00 0.00 0.00 35 1013.0
20260905161706 31 168 1.6 9.7 0.00 0.00 0.00 35 1013.0
20260905161317 31 188 1.6 9.7 0.00 0.00 0.00 36 1013.1
20260905160624 31 169 0.0 4.8 0.00 0.00 0.00 35 1013.1
20260905160308 31 213 0.0 4.8 0.00 0.00 0.00 36 1013.1
20260905160158 31 128 1.6 9.7 0.00 0.00 0.00 37 1013.1
20260905155737 31 164 1.6 9.7 0.00 0.00 0.00 37 1013.1
20260905155103 31 192 1.6 9.7 0.00 0.00 0.00 37 1013.1
20260905154932 31 193 0.0 9.7 0.00 0.00 0.00 38 1013.1
20260905154804 31 171 0.0 9.7 0.00 0.00 0.00 40 1013.1
20260905154627 31 181 0.0 9.7 0.00 0.00 0.00 41 1013.1
20260905154246 31 157 1.6 9.7 0.00 0.00 0.00 46 1013.1
20260905153614 31 136 1.6 9.7 0.00 0.00 0.00 39 1013.1
20260905153501 31 164 1.6 9.7 0.00 0.00 0.00 39 1013.1
20260905153328 31 144 1.6 9.7 0.00 0.00 0.00 41 1013.1
20260905153134 31 143 1.6 6.4 0.00 0.00 0.00 44 1013.1
20260905152219 31 133 1.6 12.9 0.00 0.00 0.00 47 1013.3
20260905151953 31 140 1.6 12.9 0.00 0.00 0.00 47 1013.3
20260905151405 30 161 1.6 8.0 0.00 0.00 0.00 46 1013.3
20260905150758 30 150 3.2 9.7 0.00 0.00 0.00 46 1013.5
20260905150628 30 144 3.2 9.7 0.00 0.00 0.00 46 1013.5
20260905150459 30 145 3.2 9.7 0.00 0.00 0.00 46 1013.5
20260905150301 30 131 3.2 9.7 0.00 0.00 0.00 48 1013.5
20260905150123 30 119 3.2 9.7 0.00 0.00 0.00 49 1013.5
20260905145312 30 126 3.2 9.7 0.00 0.00 0.00 50 1013.5
20260905145152 30 155 3.2 9.7 0.00 0.00 0.00 49 1013.5
20260905144125 30 134 4.8 11.3 0.00 0.00 0.00 49 1013.5
20260905143920 30 154 6.4 11.3 0.00 0.00 0.00 49 1013.7
20260905143747 30 143 6.4 11.3 0.00 0.00 0.00 51 1013.7
20260905143607 30 185 6.4 11.3 0.00 0.00 0.00 56 1013.7
20260905142624 29 128 6.4 11.3 0.00 0.00 0.00 58 1013.7
20260905142455 29 140 6.4 11.3 0.00 0.00 0.00 62 1013.8
20260905142322 29 114 4.8 9.7 0.00 0.00 0.00 62 1013.8
20260905142137 29 112 4.8 9.7 0.00 0.00 0.00 61 1013.8
20260905141540 30 130 3.2 9.7 0.00 0.00 0.00 58 1013.8
20260905141220 30 121 3.2 8.0 0.00 0.00 0.00 57 1013.8
20260905141058 30 119 1.6 8.0 0.00 0.00 0.00 55 1013.8
20260905140320 30 152 0.0 8.0 0.00 0.00 0.00 55 1014.0
20260905140142 30 133 0.0 4.8 0.00 0.00 0.00 55 1014.0
20260905135807 30 141 0.0 4.8 0.00 0.00 0.00 55 1014.0
20260905135640 30 154 0.0 4.8 0.00 0.00 0.00 54 1014.0
20260905135510 30 168 1.6 4.8 0.00 0.00 0.00 54 1014.2
20260905134416 30 161 3.2 8.0 0.00 0.00 0.00 53 1014.2
20260905134242 30 123 3.2 8.0 0.00 0.00 0.00 52 1014.2
20260905134114 30 123 1.6 8.0 0.00 0.00 0.00 53 1014.2
20260905133140 31 143 0.0 4.8 0.00 0.00 0.00 52 1014.3
20260905132848 31 131 0.0 4.8 0.00 0.00 0.00 51 1014.3
20260905132724 31 136 0.0 3.2 0.00 0.00 0.00 51 1014.3
20260905132338 31 189 0.0 4.8 0.00 0.00 0.00 53 1014.4
20260905132203 31 157 0.0 4.8 0.00 0.00 0.00 52 1014.4
20260905131623 30 174 0.0 4.8 0.00 0.00 0.00 54 1014.4
20260905131503 30 138 0.0 4.8 0.00 0.00 0.00 55 1014.4
20260905131326 30 157 1.6 6.4 0.00 0.00 0.00 55 1014.4
20260905131203 30 161 1.6 6.4 0.00 0.00 0.00 56 1014.7
20260905130814 30 140 3.2 8.0 0.00 0.00 0.00 55 1014.7
20260905130629 30 127 1.6 8.0 0.00 0.00 0.00 54 1014.7
20260905130242 30 120 1.6 8.0 0.00 0.00 0.00 52 1014.7
20260905130117 29 151 3.2 8.0 0.00 0.00 0.00 52 1014.7
20260905125944 29 145 3.2 8.0 0.00 0.00 0.00 54 1014.7
20260905125003 29 131 3.2 9.7 0.00 0.00 0.00 58 1014.9
20260905124717 29 130 3.2 9.7 0.00 0.00 0.00 56 1014.9
20260905124553 30 128 3.2 8.0 0.00 0.00 0.00 56 1014.9
20260905124352 30 154 3.2 6.4 0.00 0.00 0.00 55 1014.9
20260905123404 30 138 3.2 8.0 0.00 0.00 0.00 55 1015.0
20260905123228 30 140 1.6 8.0 0.00 0.00 0.00 54 1015.0
20260905123104 30 133 1.6 8.0 0.00 0.00 0.00 54 1015.0
20260905121938 30 154 1.6 4.8 0.00 0.00 0.00 58 1015.1
20260905121808 29 65 1.6 8.0 0.00 0.00 0.00 58 1015.1
20260905121235 28 93 3.2 8.0 0.00 0.00 0.00 59 1015.1
20260905120536 28 107 3.2 9.7 0.00 0.00 0.00 58 1015.2
20260905120056 29 123 3.2 11.3 0.00 0.00 0.00 56 1015.2
20260905115841 29 97 3.2 11.3 0.00 0.00 0.00 58 1015.2
20260905115146 29 104 3.2 8.0 0.00 0.00 0.00 57 1015.3
20260905115030 29 116 3.2 8.0 0.00 0.00 0.00 58 1015.3
20260905114855 29 86 3.2 8.0 0.00 0.00 0.00 58 1015.3
20260905113737 29 123 0.0 4.8 0.00 0.00 0.00 59 1015.4
20260905113613 29 131 1.6 4.8 0.00 0.00 0.00 60 1015.4
20260905113449 29 131 1.6 4.8 0.00 0.00 0.00 61 1015.4
20260905113310 28 110 1.6 4.8 0.00 0.00 0.00 62 1015.4
20260905112707 29 113 1.6 4.8 0.00 0.00 0.00 61 1015.5
20260905112403 29 103 1.6 4.8 0.00 0.00 0.00 61 1015.5
20260905112231 29 137 1.6 4.8 0.00 0.00 0.00 61 1015.5
20260905112104 29 102 1.6 4.8 0.00 0.00 0.00 61 1015.5
20260905111852 29 88 1.6 4.8 0.00 0.00 0.00 61 1015.5
20260905111006 28 126 0.0 3.2 0.00 0.00 0.00 60 1015.7
20260905110834 28 119 0.0 8.0 0.00 0.00 0.00 59 1015.7
20260905110722 29 123 1.6 8.0 0.00 0.00 0.00 59 1015.7
20260905110549 29 119 1.6 8.0 0.00 0.00 0.00 59 1015.7
20260905105942 29 88 0.0 4.8 0.00 0.00 0.00 60 1015.7
20260905105511 29 83 0.0 4.8 0.00 0.00 0.00 60 1015.9
20260905105356 29 93 0.0 4.8 0.00 0.00 0.00 59 1015.9
20260905105239 29 89 1.6 4.8 0.00 0.00 0.00 60 1015.9
20260905105017 29 80 0.0 4.8 0.00 0.00 0.00 59 1015.9
20260905104801 29 99 0.0 4.8 0.00 0.00 0.00 59 1015.9
20260905104224 29 34 0.0 3.2 0.00 0.00 0.00 61 1016.1
20260905104107 29 120 0.0 1.6 0.00 0.00 0.00 61 1016.1
20260905103948 29 72 0.0 4.8 0.00 0.00 0.00 61 1016.1
20260905103452 28 109 0.0 4.8 0.00 0.00 0.00 60 1016.1
20260905102827 28 79 0.0 1.6 0.00 0.00 0.00 59 1016.1
20260905102714 29 79 0.0 1.6 0.00 0.00 0.00 58 1016.1
20260905102605 29 42 0.0 1.6 0.00 0.00 0.00 59 1016.1
20260905102452 28 78 0.0 3.2 0.00 0.00 0.00 59 1016.1
20260905102024 28 83 0.0 3.2 0.00 0.00 0.00 58 1016.1
20260905101812 28 100 0.0 4.8 0.00 0.00 0.00 59 1016.1
20260905101428 28 99 1.6 4.8 0.00 0.00 0.00 59 1016.3
20260905101315 28 100 1.6 8.0 0.00 0.00 0.00 60 1016.3
20260905101201 28 107 1.6 8.0 0.00 0.00 0.00 59 1016.2
20260905101047 28 92 3.2 8.0 0.00 0.00 0.00 60 1016.2
20260905100618 28 85 3.2 8.0 0.00 0.00 0.00 59 1016.2
20260905100355 28 82 3.2 8.0 0.00 0.00 0.00 60 1016.2
20260905100009 28 90 3.2 8.0 0.00 0.00 0.00 59 1016.4
20260905095848 28 35 3.2 8.0 0.00 0.00 0.00 60 1016.4
20260905095725 28 80 1.6 8.0 0.00 0.00 0.00 59 1016.4
20260905095559 28 92 1.6 4.8 0.00 0.00 0.00 60 1016.4
20260905094827 28 85 1.6 8.0 0.00 0.00 0.00 59 1016.4
20260905094421 28 35 1.6 8.0 0.00 0.00 0.00 58 1016.4
20260905094259 28 21 1.6 8.0 0.00 0.00 0.00 59 1016.4
20260905093128 27 35 3.2 9.7 0.00 0.00 0.00 59 1016.4
20260905093003 27 25 3.2 9.7 0.00 0.00 0.00 58 1016.4
20260905091834 27 34 1.6 9.7 0.00 0.00 0.00 56 1016.5
20260905091643 28 64 1.6 9.7 0.00 0.00 0.00 56 1016.5
20260905091521 28 51 1.6 9.7 0.00 0.00 0.00 56 1016.5
20260905091339 28 56 3.2 9.7 0.00 0.00 0.00 56 1016.4
20260905090523 27 359 4.8 12.9 0.00 0.00 0.00 55 1016.4
20260905090234 27 0 4.8 12.9 0.00 0.00 0.00 55 1016.4
20260905090109 27 48 6.4 11.3 0.00 0.00 0.00 55 1016.4
20260905085859 27 31 6.4 12.9 0.00 0.00 0.00 56 1016.4
20260905085128 27 359 4.8 12.9 0.00 0.00 0.00 54 1016.4
20260905084925 27 4 4.8 12.9 0.00 0.00 0.00 52 1016.4
20260905084800 27 342 4.8 12.9 0.00 0.00 0.00 52 1016.4
20260905084428 27 357 6.4 12.9 0.00 0.00 0.00 54 1016.4
20260905084209 27 0 8.0 12.9 0.00 0.00 0.00 53 1016.4
20260905083820 27 1 8.0 12.9 0.00 0.00 0.00 53 1016.4
20260905083525 27 13 8.0 12.9 0.00 0.00 0.00 54 1016.4
20260905083358 26 0 8.0 12.9 0.00 0.00 0.00 54 1016.4
20260905083152 26 23 8.0 12.9 0.00 0.00 0.00 53 1016.4
20260905082720 26 4 8.0 12.9 0.00 0.00 0.00 54 1016.4
20260905082456 27 0 4.8 12.9 0.00 0.00 0.00 56 1016.4
20260905082238 26 23 8.0 12.9 0.00 0.00 0.00 54 1016.4
20260905082041 26 23 8.0 12.9 0.00 0.00 0.00 52 1016.4
20260905081901 26 352 8.0 12.9 0.00 0.00 0.00 52 1016.4
20260905080756 26 11 6.4 12.9 0.00 0.00 0.00 54 1016.4
20260905080634 26 359 6.4 12.9 0.00 0.00 0.00 53 1016.4
20260905075650 26 359 8.0 14.5 0.00 0.00 0.00 56 1016.4
20260905075356 26 14 9.7 14.5 0.00 0.00 0.00 56 1016.3
20260905075225 26 11 9.7 17.7 0.00 0.00 0.00 56 1016.3
20260905074846 26 18 9.7 17.7 0.00 0.00 0.00 56 1016.3
20260905074024 26 8 8.0 14.5 0.00 0.00 0.00 56 1016.4
20260905073821 26 35 8.0 16.1 0.00 0.00 0.00 56 1016.4
20260905073641 26 18 6.4 16.1 0.00 0.00 0.00 56 1016.4
20260905072538 26 357 6.4 14.5 0.00 0.00 0.00 55 1016.4
20260905072407 26 0 6.4 14.5 0.00 0.00 0.00 54 1016.4
20260905071641 26 3 6.4 12.9 0.00 0.00 0.00 54 1016.4
20260905071148 26 0 6.4 12.9 0.00 0.00 0.00 53 1016.4
20260905071013 26 6 6.4 12.9 0.00 0.00 0.00 53 1016.4
20260905065816 26 18 6.4 12.9 0.00 0.00 0.00 51 1016.4